{"data":{"norad_id":66571,"intl_designator":"2025-268Q","name":"STARLINK-35836","alt_names":[],"object_type":"PAYLOAD","status":"ACTIVE","operator":null,"country":"US","launch_date":"2025-11-21","launch_site_code":"AFETR","launch_vehicle":null,"mission":null,"orbit_class":"UNKNOWN","rcs_meters":null,"size_class":null,"mass_kg":null,"dimensions":null,"purposes":["comms"],"wikipedia_slug":null,"has_3d_model":false,"image_url":null,"decayed_at":null,"tle_current":{"epoch":"2026-05-25T01:12:50.067072Z","epoch_age_seconds":64645,"freshness":"FRESH","line1":"1 66571U 25268Q   26145.05057948  .00013871  00000+0  51249-3 0  9997","line2":"2 66571  43.0026 276.2107 0000770 310.8451  49.2334 15.27590251 29635","mean_motion":15.27590251,"eccentricity":7.7e-5,"inclination_deg":43.0026,"raan_deg":276.2107,"arg_perigee_deg":310.8451,"mean_anomaly_deg":49.2334,"bstar":0.00051249,"rev_number":2963,"period_min":94.266116130117,"perigee_km":482.49009206365,"apogee_km":483.54670999541,"semimajor_km":6861.1554010295,"source":"CELESTRAK","updated_at":"2026-05-25T13:38:21.282394Z"}}}